Regional Weather Roundup
Issued by NWS

Home | Current Version | Previous Version | Text Only | Print | Product List | Glossary On
Versions: 1 2 3 4 5 6 7 8 9 10 11 12 13 14 15 16 17 18 19 20 21 22 23 24 25 26 27 28 29 30 31 32 33 34 35 36 37 38 39 40 41 42 43 44 45 46 47 48 49 50
000
ASUS44 KMEG 161110
RWRTN
TENNESSEE HOURLY STATE WEATHER ROUNDUP
NATIONAL WEATHER SERVICE MEMPHIS TN
500 AM CST SAT DEC 16 2017

TNZ002-004-019-021-049-052-054-088>092-161200-
WEST TENNESSEE

CITY           SKY/WX    TMP DP  RH WIND       PRES   REMARKS
MEMPHIS INTL   CLOUDY    33  27  78 S9        30.18F WCI  25
NWS MEMPHIS      N/A     36 N/A N/A MISG        N/A
JACKSON        CLOUDY    34  27  75 S10       30.18F WCI  26
DYERSBURG      CLOUDY    34  27  75 S5        30.17S WCI  30
SOMERVILLE     CLEAR     34  27  75 S6        30.18S WCI  29
COVINGTON      PTCLDY    32  27  80 S7        30.18F WCI  26
UNION CITY     CLEAR     28  25  86 S8        30.16R WCI  20
BOLIVAR        PTCLDY    30  25  80 S6        30.19F WCI  24
PARIS          CLEAR     30  25  80 S7        30.16R WCI  23
HUNTINGDON     PTCLDY    32  27  80 S5        30.16S WCI  27
LEXINGTON      CLEAR     30  25  80 S5        30.20S WCI  25
SELMER         PTCLDY    30  25  80 SW3       30.20S
SAVANNAH       PTCLDY    32  27  80 S6        30.21F WCI  26
$$

TNZ008-025-027-028-033-062-065-066-161200-
NORTH MIDDLE TENNESSEE

CITY           SKY/WX    TMP DP  RH WIND       PRES   REMARKS
NASHVILLE      CLOUDY    29  23  78 S5        30.21F WCI  24
PORTLAND         N/A     28  25  86 S10       30.18S WCI  19
CLARKSVILLE    CLEAR     31  23  72 SW8       30.17F WCI  23
SMYRNA         CLOUDY    27  23  85 SE6       30.24S WCI  20
COOKEVILLE     PTCLDY    18  16  93 CALM      30.21S
GALLATIN       MOCLDY    23  21  93 CALM      30.24R
CROSSVILLE     CLOUDY    22  19  89 CALM      30.19R
$$

TNZ061-075-076-078-094-096-097-161200-
SOUTH MIDDLE TENNESSEE

CITY           SKY/WX    TMP DP  RH WIND       PRES   REMARKS
FAYETTEVILLE   CLEAR     25  23  93 S6        30.22S WCI  18
TULLAHOMA      CLEAR     21  19  93 CALM      30.22S
WINCHESTER     CLEAR     19  18  93 CALM      30.24R
MCMINNVILLE    PTCLDY    19  18  93 CALM      30.22F
COLUMBIA       MOCLDY    28  25  86 CALM      30.20S
SHELBYVILLE    CLEAR     25  23  93 E3        30.22F
$$

TNZ017-018-042-046-047-161200-
NORTHEAST TENNESSEE

CITY           SKY/WX    TMP DP  RH WIND       PRES   REMARKS
TRI CITIES     CLOUDY    22  21  96 CALM      30.21R
ELIZABETHTON   MOCLDY    23  21  93 CALM      30.21R
$$

TNZ012-013-036-069-073-074-161200-
CENTRAL EAST TENNESSEE

CITY           SKY/WX    TMP DP  RH WIND       PRES   REMARKS
KNOXVILLE      CLOUDY    22  22 100 SW5       30.24R WCI  16
OAK RIDGE      CLOUDY    24  21  88 VRB3      30.26R
DOWNTOWN KNOXV   N/A     25  25 100 CALM      30.25S FOG
GATLINBURG     CLOUDY    21  19  93 CALM      30.23S
MORRISTOWN     CLOUDY    23  21  93 CALM      30.21S
JACKSBORO      PTCLDY    21  19  93 CALM      30.26R
$$

TNZ083-085-099-161200-
SOUTHEAST TENNESSEE

CITY           SKY/WX    TMP DP  RH WIND       PRES   REMARKS
CHATTANOOGA    CLOUDY    24  21  88 CALM      30.27R
DAYTON         SUNNY     19  19 100 CALM      30.25S
$$

SKY/WX REPORTED AS FAIR MEANS FEW OR NO CLOUDS BELOW
12 THOUSAND FEET.





USA.gov is the U.S. government's official web portal to all federal, state and local government web resources and services.